Weather History for Lewisburg, WV

Change the Weather History Date:

Sunday, January 12, 2014

  Actual Average Record
Temperature  
Mean Temperature 36 °F 28 °F  
Max Temperature 46 °F 38 °F 63 °F (2013)
Min Temperature 25 °F 18 °F -2 °F (1981)
Degree Days  
Heating Degree Days 29    
Month to date heating degree days 467  
Cooling Degree Days 0    
Month to date cooling degree days 0  
Year to date cooling degree days 0  
Moisture  
Dew Point 25 °F    
Average Humidity 63    
Maximum Humidity 85    
Minimum Humidity 40    
Precipitation  
Precipitation 0.00 in 0.10 in 0.26 in (2012)
Month to date precipitation 0.55 1.22  
Year to date precipitation 0.55 1.22  
Snow  
Snow 0.00 in - - ()
Month to date snowfall 0.1  
Snow Depth 0.00 in    
Sea Level Pressure  
Sea Level Pressure 29.97 in    
Wind  
Wind Speed 6 mph (West)    
Max Wind Speed 14 mph    
Max Gust Speed 24 mph    
Visibility 10 miles    
Events      
T = Trace of Precipitation, MM = Missing Value Source: NWS Daily Summary

Daily Weather History Graph

Daily Weather History Graph

Search for Another Location

Airport:

Trip Planner

Search our weather history database for the weather conditions in past years. The results will help you decide how hot, cold, wet, or windy it might be!

Date:

Astronomy

Jan. 12, 2014 Rise Set
Actual Time 7:36 AM EST 5:23 PM EST
Civil Twilight 7:07 AM EST 5:52 PM EST
Nautical Twilight 6:35 AM EST 6:24 PM EST
Astronomical Twilight 6:03 AM EST 6:56 PM EST
Moon 2:49 PM EST (1/12) 4:34 AM EST (1/12)
Length of Visible Light 10h 44m
Length of Day
9h 46m
Waxing Gibbous, 89% of the Moon is Illuminated
Jan 12
Waxing Gibbous
Jan 15
Full
Jan 24
Last Quarter
Jan 30
New
Feb 6
First Quarter

Hourly Weather History & Observations

Time (EST) Temp. Windchill Dew Point Humidity Pressure Visibility Wind Dir Wind Speed Gust Speed Precip Events Conditions
12:15 AM 36.5 °F 29.2 °F 27.7 °F 70% 29.75 in 10.0 mi West 10.4 mph 19.6 mph N/A   Overcast
12:35 AM 36.3 °F 29.5 °F 28.0 °F 72% 29.75 in 10.0 mi West 9.2 mph - N/A   Overcast
12:55 AM 36.1 °F 29.9 °F 28.0 °F 72% 29.75 in 10.0 mi West 8.1 mph 23.0 mph N/A   Overcast
1:15 AM 36.0 °F 30.3 °F 28.2 °F 73% 29.75 in 10.0 mi WNW 6.9 mph - N/A   Overcast
1:35 AM 36.0 °F 28.5 °F 27.9 °F 72% 29.77 in 10.0 mi WNW 10.4 mph 18.4 mph N/A   Overcast
1:55 AM 35.1 °F 27.4 °F 28.4 °F 77% 29.78 in 10.0 mi West 10.4 mph 18.4 mph N/A   Overcast
2:15 AM 35.6 °F 29.9 °F 26.1 °F 68% 29.79 in 10.0 mi West 6.9 mph 19.6 mph N/A   Overcast
2:35 AM 35.6 °F 27.5 °F 25.0 °F 65% 29.80 in 10.0 mi WNW 11.5 mph 18.4 mph N/A   Overcast
2:55 AM 35.1 °F 25.9 °F 23.2 °F 62% 29.80 in 10.0 mi West 13.8 mph 24.2 mph N/A   Overcast
3:15 AM 34.7 °F 25.9 °F 21.9 °F 60% 29.81 in 10.0 mi WNW 12.7 mph 24.2 mph N/A   Scattered Clouds
3:35 AM 34.2 °F 27.5 °F 23.0 °F 64% 29.82 in 10.0 mi WNW 8.1 mph - N/A   Mostly Cloudy
3:55 AM 33.8 °F 27.7 °F 23.7 °F 67% 29.82 in 10.0 mi West 6.9 mph - N/A   Mostly Cloudy
4:15 AM 33.8 °F 24.3 °F 24.3 °F 68% 29.83 in 10.0 mi West 13.8 mph 20.7 mph N/A   Mostly Cloudy
4:35 AM 33.8 °F 24.3 °F 23.5 °F 66% 29.84 in 10.0 mi West 13.8 mph 24.2 mph N/A   Overcast
4:55 AM 33.4 °F 24.8 °F 23.7 °F 68% 29.85 in 10.0 mi West 11.5 mph 17.3 mph N/A   Overcast
5:15 AM 33.4 °F 25.4 °F 23.5 °F 67% 29.86 in 10.0 mi West 10.4 mph 18.4 mph N/A   Overcast
5:35 AM 33.4 °F 23.9 °F 23.7 °F 68% 29.88 in 10.0 mi West 13.8 mph 19.6 mph N/A   Overcast
5:55 AM 33.4 °F 26.6 °F 24.1 °F 69% 29.88 in 10.0 mi West 8.1 mph 17.3 mph N/A   Overcast
6:15 AM 33.6 °F 27.5 °F 24.1 °F 68% 29.88 in 10.0 mi West 6.9 mph - N/A   Overcast
6:35 AM 33.8 °F 27.7 °F 24.3 °F 68% 29.89 in 10.0 mi WNW 6.9 mph - N/A   Overcast
6:55 AM 33.8 °F 27.7 °F 24.6 °F 69% 29.90 in 10.0 mi West 6.9 mph - N/A   Overcast
7:15 AM 34.0 °F 28.0 °F 25.0 °F 70% 29.91 in 10.0 mi West 6.9 mph - N/A   Overcast
7:35 AM 34.0 °F 28.8 °F 25.7 °F 72% 29.91 in 10.0 mi West 5.8 mph - N/A   Overcast
7:55 AM 34.0 °F 28.8 °F 26.1 °F 73% 29.92 in 10.0 mi West 5.8 mph - N/A   Overcast
8:15 AM 34.3 °F 29.2 °F 26.1 °F 72% 29.93 in 10.0 mi WSW 5.8 mph - N/A   Overcast
8:35 AM 34.3 °F 29.2 °F 26.2 °F 72% 29.94 in 10.0 mi WSW 5.8 mph - N/A   Overcast
8:55 AM 34.9 °F 29.0 °F 26.2 °F 71% 29.95 in 10.0 mi West 6.9 mph - N/A   Overcast
9:15 AM 35.1 °F 31.0 °F 26.1 °F 70% 29.96 in 10.0 mi SSW 4.6 mph - N/A   Overcast
9:35 AM 35.6 °F 30.7 °F 26.1 °F 68% 29.96 in 10.0 mi West 5.8 mph - N/A   Overcast
9:55 AM 36.1 °F 32.3 °F 26.2 °F 67% 29.98 in 10.0 mi WNW 4.6 mph - N/A   Overcast
10:15 AM 36.5 °F 30.3 °F 26.1 °F 66% 30.00 in 10.0 mi WNW 8.1 mph 18.4 mph N/A   Overcast
10:35 AM 37.2 °F 31.9 °F 26.6 °F 65% 30.01 in 10.0 mi West 6.9 mph - N/A   Overcast
10:55 AM 37.0 °F 29.8 °F 26.6 °F 66% 30.02 in 10.0 mi WNW 10.4 mph - N/A   Overcast
11:15 AM 37.2 °F 31.2 °F 26.6 °F 65% 30.02 in 10.0 mi WNW 8.1 mph - N/A   Overcast
11:35 AM 37.9 °F 30.0 °F 26.6 °F 64% 30.02 in 10.0 mi NW 12.7 mph 16.1 mph N/A   Overcast
11:55 AM 39.4 °F 33.2 °F 27.3 °F 62% 30.02 in 10.0 mi NW 9.2 mph - N/A   Mostly Cloudy
12:15 PM 39.6 °F 34.0 °F 26.6 °F 60% 30.01 in 10.0 mi NW 8.1 mph - N/A   Scattered Clouds
12:35 PM 40.5 °F 34.6 °F 25.9 °F 56% 30.01 in 10.0 mi West 9.2 mph 17.3 mph N/A   Scattered Clouds
12:55 PM 40.8 °F 35.6 °F 25.9 °F 55% 30.02 in 10.0 mi West 8.1 mph - N/A   Clear
1:15 PM 42.1 °F 36.6 °F 25.9 °F 53% 30.03 in 10.0 mi West 9.2 mph 16.1 mph N/A   Clear
1:35 PM 42.3 °F 37.3 °F 25.5 °F 52% 30.03 in 10.0 mi West 8.1 mph - N/A   Clear
1:55 PM 43.0 °F 37.2 °F 25.2 °F 49% 30.03 in 10.0 mi West 10.4 mph - N/A   Clear
2:15 PM 43.5 °F 38.3 °F 25.5 °F 49% 30.03 in 10.0 mi SW 9.2 mph - N/A   Clear
2:35 PM 44.2 °F 39.2 °F 24.6 °F 46% 30.03 in 10.0 mi WSW 9.2 mph - N/A   Clear
2:55 PM 44.6 °F 39.2 °F 24.1 °F 44% 30.03 in 10.0 mi WSW 10.4 mph - N/A   Clear
3:15 PM 45.0 °F 39.7 °F 24.1 °F 44% 30.03 in 10.0 mi SW 10.4 mph - N/A   Clear
3:35 PM 45.5 °F 40.8 °F 23.4 °F 42% 30.04 in 10.0 mi SW 9.2 mph - N/A   Clear
3:55 PM 45.1 °F 40.8 °F 23.0 °F 42% 30.04 in 10.0 mi SW 8.1 mph - N/A   Clear
4:15 PM 45.5 °F 40.8 °F 22.3 °F 40% 30.05 in 10.0 mi West 9.2 mph - N/A   Clear
4:35 PM 44.8 °F 41.6 °F 23.0 °F 42% 30.06 in 10.0 mi SW 5.8 mph - N/A   Clear
4:55 PM 43.0 °F 40.3 °F 25.7 °F 51% 30.06 in 10.0 mi SW 4.6 mph - N/A   Clear
5:15 PM 40.6 °F 38.6 °F 25.7 °F 55% 30.07 in 10.0 mi SW 3.5 mph - N/A   Clear
5:35 PM 39.7 °F 36.5 °F 25.2 °F 56% 30.08 in 10.0 mi SW 4.6 mph - N/A   Clear
5:55 PM 39.2 °F - 25.2 °F 57% 30.07 in 10.0 mi Calm Calm - N/A   Clear
6:15 PM 37.9 °F - 25.7 °F 61% 30.08 in 10.0 mi Calm Calm - N/A   Clear
6:35 PM 37.2 °F - 25.7 °F 63% 30.08 in 10.0 mi Calm Calm - N/A   Clear
6:55 PM 35.6 °F - 25.0 °F 65% 30.09 in 10.0 mi Calm Calm - N/A   Clear
7:15 PM 34.0 °F - 25.5 °F 71% 30.10 in 10.0 mi Calm Calm - N/A   Clear
7:35 PM 31.8 °F - 24.3 °F 74% 30.09 in 10.0 mi Calm Calm - N/A   Clear
7:55 PM 32.4 °F - 25.2 °F 75% 30.09 in 10.0 mi Calm Calm - N/A   Clear
8:15 PM 32.7 °F - 24.8 °F 73% 30.10 in 10.0 mi Calm Calm - N/A   Clear
8:35 PM 31.1 °F - 24.3 °F 76% 30.10 in 10.0 mi Calm Calm - N/A   Clear
8:55 PM 31.1 °F - 23.7 °F 74% 30.10 in 10.0 mi Calm Calm - N/A   Clear
9:15 PM 31.3 °F - 24.3 °F 75% 30.10 in 10.0 mi Calm Calm - N/A   Clear
9:35 PM 30.4 °F - 23.4 °F 75% 30.11 in 10.0 mi Calm Calm - N/A   Clear
9:55 PM 29.7 °F - 23.7 °F 79% 30.10 in 10.0 mi Calm Calm - N/A   Clear
10:15 PM 28.4 °F - 23.7 °F 83% 30.10 in 10.0 mi Calm Calm - N/A   Clear
10:35 PM 27.3 °F - 22.8 °F 83% 30.09 in 10.0 mi Calm Calm - N/A   Clear
10:55 PM 27.5 °F - 23.5 °F 85% 30.10 in 10.0 mi Calm Calm - N/A   Clear
11:15 PM 28.0 °F - 23.9 °F 84% 30.10 in 10.0 mi Calm Calm - N/A   Clear
11:35 PM 26.6 °F - 21.9 °F 82% 30.09 in 10.0 mi Calm Calm - N/A   Clear
11:55 PM 25.7 °F - 22.3 °F 87% 30.09 in 10.0 mi Calm Calm - N/A   Clear